• în Republica Moldova
  • Lista ţărilor
  • Pe 7 zile
  • Temperatura apei
  • Hartă satelitară
  • Meteo pe hartă
  • Widget-uri
  • user-avatar
    Intrare

    Meteo pe oră la Perth

    Astăzi, 26 Iunie, Luni

    Timp Temperatura Precipitaţii Vânt Presiune Umiditate
    00:00 +8°C° 0 mm 2 m/s 769 mmHg 83%
    01:00 +8°C° 0 mm 2 m/s 768 mmHg 85%
    02:00 +8°C° 0 mm 2 m/s 769 mmHg 78%
    03:00 +8°C° 0 mm 2 m/s 769 mmHg 80%
    04:00 +7°C° 0 mm 2 m/s 769 mmHg 81%
    05:00 +7°C° 0 mm 2 m/s 769 mmHg 83%
    06:00 +7°C° 0 mm 2 m/s 769 mmHg 82%
    07:00 +8°C° 0 mm 2 m/s 769 mmHg 81%
    08:00 +10°C° 0 mm 2 m/s 769 mmHg 74%
    09:00 +12°C° 0 mm 2 m/s 769 mmHg 65%
    10:00 +14°C° 0 mm 1 m/s 769 mmHg 56%
    11:00 +16°C° 0 mm 1 m/s 769 mmHg 48%
    12:00 +17°C° 0 mm 2 m/s 768 mmHg 47%
    13:00 +17°C° 0 mm 2 m/s 768 mmHg 45%
    14:00 +18°C° 0 mm 2 m/s 768 mmHg 44%
    15:00 +17°C° 0 mm 2 m/s 768 mmHg 50%
    16:00 +16°C° 0 mm 2 m/s 768 mmHg 57%
    17:00 +15°C° 0 mm 2 m/s 768 mmHg 63%
    18:00 +12°C° 0 mm 3 m/s 768 mmHg 68%
    19:00 +11°C° 0 mm 3 m/s 768 mmHg 73%
    20:00 +10°C° 0 mm 3 m/s 769 mmHg 78%
    21:00 +10°C° 0 mm 3 m/s 769 mmHg 81%
    22:00 +10°C° 0 mm 3 m/s 769 mmHg 83%
    23:00 +9°C° 0 mm 3 m/s 769 mmHg 85%

    Mâine, 27 Iunie, Marţi

    Timp Temperatura Precipitaţii Vânt Presiune Umiditate
    00:00 +9°C° 0 mm 2 m/s 769 mmHg 87%
    01:00 +8°C° 0 mm 2 m/s 769 mmHg 89%
    02:00 +8°C° 0 mm 2 m/s 769 mmHg 92%
    03:00 +8°C° 0 mm 2 m/s 769 mmHg 92%
    04:00 +7°C° 0 mm 2 m/s 769 mmHg 92%
    05:00 +7°C° 0 mm 2 m/s 769 mmHg 92%
    06:00 +8°C° 0 mm 2 m/s 769 mmHg 90%
    07:00 +8°C° 0 mm 2 m/s 769 mmHg 89%
    08:00 +8°C° 0 mm 2 m/s 769 mmHg 87%
    09:00 +12°C° 0 mm 2 m/s 770 mmHg 79%
    10:00 +14°C° 0 mm 2 m/s 770 mmHg 70%
    11:00 +17°C° 0 mm 3 m/s 770 mmHg 62%
    12:00 +17°C° 0 mm 2 m/s 769 mmHg 59%
    13:00 +18°C° 0 mm 2 m/s 769 mmHg 55%
    14:00 +19°C° 0 mm 2 m/s 768 mmHg 52%
    15:00 +18°C° 0 mm 2 m/s 769 mmHg 56%
    16:00 +17°C° 0 mm 2 m/s 769 mmHg 60%
    17:00 +16°C° 0 mm 2 m/s 769 mmHg 64%
    18:00 +15°C° 0 mm 2 m/s 769 mmHg 67%
    19:00 +14°C° 0 mm 2 m/s 770 mmHg 70%
    20:00 +12°C° 0 mm 3 m/s 770 mmHg 74%
    21:00 +12°C° 0 mm 3 m/s 771 mmHg 76%
    22:00 +11°C° 0 mm 3 m/s 771 mmHg 78%
    23:00 +11°C° 0 mm 3 m/s 771 mmHg 81%

    Poimâine, 28 Iunie, Miercuri

    Timp Temperatura Precipitaţii Vânt Presiune Umiditate
    00:00 +11°C° 0 mm 3 m/s 771 mmHg 84%
    01:00 +10°C° 0 mm 3 m/s 771 mmHg 88%
    02:00 +10°C° 0 mm 4 m/s 771 mmHg 92%
    03:00 +10°C° 0 mm 4 m/s 771 mmHg 92%
    04:00 +8°C° 0 mm 4 m/s 771 mmHg 93%
    05:00 +8°C° 0 mm 4 m/s 771 mmHg 94%
    06:00 +8°C° 0 mm 4 m/s 772 mmHg 93%
    07:00 +8°C° 0 mm 4 m/s 772 mmHg 92%
    08:00 +8°C° 0 mm 4 m/s 773 mmHg 92%
    09:00 +11°C° 0 mm 4 m/s 773 mmHg 81%
    10:00 +13°C° 0 mm 4 m/s 773 mmHg 71%
    11:00 +15°C° 0 mm 4 m/s 773 mmHg 61%
    12:00 +17°C° 0 mm 4 m/s 772 mmHg 57%
    13:00 +18°C° 0 mm 4 m/s 772 mmHg 52%
    14:00 +19°C° 0 mm 4 m/s 771 mmHg 48%
    15:00 +17°C° 0 mm 3 m/s 771 mmHg 52%
    16:00 +16°C° 0 mm 3 m/s 771 mmHg 56%
    17:00 +14°C° 0 mm 3 m/s 771 mmHg 60%
    18:00 +13°C° 0 mm 3 m/s 771 mmHg 64%
    19:00 +12°C° 0 mm 3 m/s 772 mmHg 68%
    20:00 +10°C° 0 mm 3 m/s 772 mmHg 72%
    21:00 +10°C° 0 mm 3 m/s 772 mmHg 72%
    22:00 +10°C° 0 mm 3 m/s 772 mmHg 73%
    23:00 +10°C° 0 mm 4 m/s 772 mmHg 73%

    29 Iunie, Joi

    Timp Temperatura Precipitaţii Vânt Presiune Umiditate
    00:00 +8°C° 0 mm 4 m/s 772 mmHg 74%
    01:00 +8°C° 0 mm 4 m/s 772 mmHg 76%
    02:00 +8°C° 0 mm 4 m/s 772 mmHg 77%
    03:00 +7°C° 0 mm 4 m/s 771 mmHg 78%
    04:00 +7°C° 0 mm 4 m/s 771 mmHg 79%
    05:00 +7°C° 0 mm 4 m/s 771 mmHg 80%
    06:00 +7°C° 0 mm 4 m/s 771 mmHg 80%
    07:00 +7°C° 0 mm 4 m/s 772 mmHg 80%
    08:00 +7°C° 0 mm 4 m/s 772 mmHg 79%
    09:00 +10°C° 0 mm 4 m/s 772 mmHg 71%
    10:00 +13°C° 0 mm 4 m/s 771 mmHg 62%
    11:00 +15°C° 0 mm 4 m/s 771 mmHg 54%
    12:00 +17°C° 0 mm 4 m/s 770 mmHg 50%
    13:00 +18°C° 0 mm 4 m/s 769 mmHg 46%
    14:00 +19°C° 0 mm 3 m/s 768 mmHg 42%
    15:00 +17°C° 0 mm 3 m/s 768 mmHg 47%
    16:00 +16°C° 0 mm 3 m/s 767 mmHg 52%
    17:00 +14°C° 0 mm 2 m/s 767 mmHg 56%
    18:00 +13°C° 0 mm 2 m/s 767 mmHg 59%
    19:00 +11°C° 0 mm 3 m/s 767 mmHg 62%
    20:00 +10°C° 0 mm 3 m/s 767 mmHg 65%
    21:00 +10°C° 0 mm 3 m/s 767 mmHg 63%
    22:00 +10°C° 0 mm 3 m/s 767 mmHg 61%
    23:00 +10°C° 0 mm 4 m/s 766 mmHg 59%

    30 Iunie, Vineri

    Timp Temperatura Precipitaţii Vânt Presiune Umiditate
    00:00 +10°C° 0 mm 4 m/s 766 mmHg 58%
    01:00 +10°C° 0 mm 4 m/s 765 mmHg 57%
    02:00 +10°C° 0 mm 4 m/s 765 mmHg 56%
    03:00 +9°C° 0 mm 5 m/s 764 mmHg 56%
    04:00 +9°C° 0 mm 5 m/s 764 mmHg 56%
    05:00 +9°C° 0 mm 5 m/s 764 mmHg 56%
    06:00 +9°C° 0 mm 5 m/s 764 mmHg 56%
    07:00 +9°C° 0 mm 5 m/s 764 mmHg 56%
    08:00 +10°C° 0 mm 4 m/s 764 mmHg 56%
    09:00 +12°C° 0 mm 5 m/s 763 mmHg 53%
    10:00 +13°C° 0 mm 5 m/s 763 mmHg 50%
    11:00 +15°C° 0 mm 5 m/s 763 mmHg 48%
    12:00 +16°C° 0,1 mm 5 m/s 762 mmHg 50%
    13:00 +17°C° 0,1 mm 5 m/s 761 mmHg 53%
    14:00 +19°C° 0,1 mm 6 m/s 760 mmHg 56%
    15:00 +17°C° 0,6 mm 5 m/s 760 mmHg 64%
    16:00 +16°C° 0,6 mm 5 m/s 760 mmHg 72%
    17:00 +15°C° 0,6 mm 4 m/s 760 mmHg 80%
    18:00 +15°C° 0,7 mm 4 m/s 760 mmHg 85%
    19:00 +14°C° 0,7 mm 4 m/s 761 mmHg 89%
    20:00 +14°C° 0,7 mm 3 m/s 761 mmHg 94%
    21:00 +14°C° 0,1 mm 3 m/s 761 mmHg 94%
    22:00 +13°C° 0,1 mm 3 m/s 761 mmHg 94%
    23:00 +14°C° 0,1 mm 2 m/s 761 mmHg 94%

    1 Iulie, Sâmbătă

    Timp Temperatura Precipitaţii Vânt Presiune Umiditate
    00:00 +14°C° 0 mm 2 m/s 761 mmHg 93%
    01:00 +13°C° 0 mm 3 m/s 761 mmHg 92%
    02:00 +12°C° 0 mm 3 m/s 761 mmHg 91%
    03:00 +12°C° 0 mm 3 m/s 761 mmHg 90%
    04:00 +12°C° 0 mm 3 m/s 760 mmHg 90%
    05:00 +12°C° 0 mm 3 m/s 760 mmHg 89%
    06:00 +12°C° 0,1 mm 3 m/s 760 mmHg 88%
    07:00 +12°C° 0,1 mm 4 m/s 761 mmHg 87%
    08:00 +12°C° 0,1 mm 4 m/s 761 mmHg 86%
    09:00 +13°C° 0,3 mm 5 m/s 761 mmHg 84%
    10:00 +13°C° 0,3 mm 5 m/s 761 mmHg 81%
    11:00 +14°C° 0,3 mm 6 m/s 761 mmHg 79%
    12:00 +13°C° 0,7 mm 6 m/s 760 mmHg 81%
    13:00 +13°C° 0,7 mm 6 m/s 760 mmHg 84%
    14:00 +11°C° 0,7 mm 7 m/s 760 mmHg 87%
    15:00 +10°C° 0,7 mm 6 m/s 760 mmHg 88%
    16:00 +10°C° 0,7 mm 6 m/s 761 mmHg 90%
    17:00 +9°C° 0,7 mm 6 m/s 762 mmHg 91%
    18:00 +8°C° 0,3 mm 5 m/s 762 mmHg 92%
    19:00 +7°C° 0,3 mm 5 m/s 763 mmHg 92%
    20:00 +7°C° 0,3 mm 4 m/s 764 mmHg 92%
    21:00 +6°C° 0,1 mm 4 m/s 764 mmHg 92%
    22:00 +6°C° 0,1 mm 4 m/s 764 mmHg 92%
    23:00 +5°C° 0,1 mm 4 m/s 765 mmHg 92%
    Arată mai mult